Change the Weather History Date:

Saturday, February 4, 2012

  Actual Average Record
Temperature  
Mean Temperature 51 °F 43 °F  
Max Temperature 60 °F 49 °F 63 °F (1993)
Min Temperature 41 °F 37 °F 7 °F (1989)
Degree Days  
Heating Degree Days 14 22  
Month to date heating degree days 78 88  
Since 1 July heating degree days 2839 2737  
Cooling Degree Days 0 0  
Month to date cooling degree days 0 0  
Year to date cooling degree days 0 0  
Moisture  
Dew Point 26 °F    
Average Humidity 40    
Maximum Humidity 55    
Minimum Humidity 25    
Precipitation  
Precipitation 0.00 in 0.13 in 0.91 in (1965)
Month to date precipitation 0.53 0.53  
Year to date precipitation 7.36 6.10  
Snow  
Snow 0.00 in - 1.70 in (1949)
Month to date snowfall 0.0  
Since 1 July snowfall 9.6  
Snow Depth 0.00 in    
Sea Level Pressure  
Sea Level Pressure 30.19 in    
Wind  
Wind Speed 10 mph (East)    
Max Wind Speed 20 mph    
Max Gust Speed 24 mph    
Visibility 10 miles    
Events      
T = Trace of Precipitation, MM = Missing Value Source: NWS Daily Summary

Daily Weather History Graph

Daily Weather History Graph

Search for Another Location

Airport or City:

Trip Planner

Search our weather history database for the weather conditions in past years. The results will help you decide how hot, cold, wet, or windy it might be!

Date:

Astronomy

Feb. 04, 2012 Rise Set
Actual Time 7:31 AM PST 5:15 PM PST
Civil Twilight 6:59 AM PST 5:47 PM PST
Nautical Twilight 6:22 AM PST 6:24 PM PST
Astronomical Twilight 5:46 AM PST 7:00 PM PST
Moon 2:09 PM PST 5:10 AM PST
Length of Visible Light 10h 48m
Length of Day
9h 43m
Waxing Gibbous, 89% of the Moon is Illuminated
Feb 4
Waxing Gibbous
Feb 7
Full
Feb 14
Last Quarter
Feb 21
New
Feb 29
First Quarter

Hourly Weather History & Observations

Time (PST) Temp. Windchill Dew Point Humidity Pressure Visibility Wind Dir Wind Speed Gust Speed Precip Events Conditions
12:53 AM 46.0 °F 41.0 °F 25.0 °F 44% 30.18 in 10.0 mi ESE 10.4 mph - N/A   Partly Cloudy
1:53 AM 46.0 °F 40.2 °F 25.0 °F 44% 30.20 in 10.0 mi ESE 12.7 mph - N/A   Partly Cloudy
2:53 AM 45.0 °F 39.7 °F 25.0 °F 46% 30.19 in 10.0 mi ESE 10.4 mph - N/A   Partly Cloudy
3:53 AM 44.1 °F 40.1 °F 25.0 °F 47% 30.20 in 10.0 mi ESE 6.9 mph - N/A   Partly Cloudy
4:53 AM 45.0 °F 41.8 °F 24.1 °F 44% 30.20 in 10.0 mi East 5.8 mph - N/A   Partly Cloudy
5:53 AM 44.1 °F 41.5 °F 25.0 °F 47% 30.21 in 10.0 mi East 4.6 mph - N/A   Partly Cloudy
6:53 AM 41.0 °F 38.0 °F 26.1 °F 55% 30.21 in 10.0 mi NE 4.6 mph - N/A   Scattered Clouds
7:53 AM 42.1 °F 38.4 °F 27.0 °F 55% 30.22 in 10.0 mi NE 5.8 mph - N/A   Mostly Cloudy
8:53 AM 46.9 °F - 27.0 °F 46% 30.22 in 10.0 mi ENE 6.9 mph - N/A   Mostly Cloudy
9:53 AM 50.0 °F - 28.0 °F 43% 30.21 in 10.0 mi NE 4.6 mph - N/A   Mostly Cloudy
10:53 AM 52.0 °F - 28.9 °F 41% 30.21 in 10.0 mi WNW 3.5 mph - N/A   Scattered Clouds
11:53 AM 54.0 °F - 33.1 °F 45% 30.18 in 10.0 mi WNW 4.6 mph - N/A   Scattered Clouds
12:53 PM 55.0 °F - 32.0 °F 42% 30.17 in 10.0 mi WNW 9.2 mph - N/A   Partly Cloudy
1:53 PM 59.0 °F - 26.1 °F 28% 30.15 in 10.0 mi ESE 9.2 mph - N/A   Partly Cloudy
2:53 PM 60.1 °F - 25.0 °F 26% 30.15 in 10.0 mi ESE 6.9 mph - N/A   Partly Cloudy
3:53 PM 59.0 °F - 24.1 °F 26% 30.15 in 10.0 mi East 12.7 mph - N/A   Scattered Clouds
4:53 PM 55.9 °F - 24.1 °F 29% 30.15 in 10.0 mi ESE 16.1 mph - N/A   Scattered Clouds
5:53 PM 53.1 °F - 24.1 °F 32% 30.16 in 10.0 mi ESE 15.0 mph - N/A   Scattered Clouds
6:53 PM 52.0 °F - 24.1 °F 34% 30.17 in 10.0 mi SE 15.0 mph 24.2 mph N/A   Scattered Clouds
7:53 PM 50.0 °F - 24.1 °F 36% 30.19 in 10.0 mi ESE 15.0 mph - N/A   Partly Cloudy
8:53 PM 48.9 °F - 24.1 °F 38% 30.19 in 10.0 mi ESE 15.0 mph - N/A   Partly Cloudy
9:53 PM 48.9 °F - 24.1 °F 38% 30.20 in 10.0 mi ESE 13.8 mph - N/A   Partly Cloudy
10:53 PM 48.0 °F - 24.1 °F 39% 30.21 in 10.0 mi ESE 11.5 mph - N/A   Partly Cloudy
11:53 PM 48.0 °F - 24.1 °F 39% 30.21 in 10.0 mi ESE 11.5 mph - N/A   Partly Cloudy